Location: Bednik
(45.3500°N, 16.3833°E)
Time: 23:50:19
(UTC+00:00)

SL-16 R/B - Pass Details

Date: 08 August 2020
Orbit: 985 x 1007 km, 99.5° (Epoch: 23 September)

Event Time Altitude Azimuth Distance (km) Brightness Sun altitude
Exits shadow 23:46:15 29° 116° (ESE) 1,760 3.7 -28.0°
Maximum altitude 23:48:56 44° 66° (ENE) 1,367 3.4 -27.9°
Drops below altitude 10° 23:54:48 10° 356° (N) 2,789 5.8 -27.6°
Sets 23:57:23 0° 351° (N) 3,740 6.5 -27.5°
